OPS 4682 DEB, 51504

Orbit data source: Space-Track

OPS 4682 DEB, 51504 is space debris in LEO originally from a launch on Sat, 03 Apr 1965 UTC launched from the Air Force Western Test Range (AFWTR). Debris objects in space refer to the collection of defunct objects orbiting the Earth. Examples of debris include non-operational satellites, rocket bodies, and fragments generated from explosions, collisions, or faulty payload assembly.

Loading next visibility...
Identifier
51504, 1965-027GQ
Orbit
LEO
Country
Flag of USUS
Related business
Manufacturer
Unknown
Mission
Spacecraft
Bus & Motor
Unknown
Mass
Unknown
Launch date (UTC)
1965-04-03 (61 years ago)
Launch vehicle
Unknown
Launch site
Air Force Western Test Range (AFWTR)
Object type
Payload
Rocket body
Debris
Shape & HBR
Unknown shape, 1.1 m
Radar Cross Section
Medium (>0.1 m² and <1 m²)

Expand to show TLE details & history
Last TLE update: 4 days ago

TLE from 4 days ago
0 OPS 4682 DEB
1 51504U 65027GQ  26259.25515131  .00000540  00000-0  18315-2 0  9991
2 51504  90.2407 357.0130 0030328 226.2647 133.5962 12.97538125533501
Epoch: 2026-09-16T06:07Z
TLE epoch observation values (Epoch: 2026-09-16T06:07:25.073Z)
Latitude
-0.00003°
Longitude
-90.05084°
Altitude
1,290.666 km
Speed
7.203 km/s
True Right ascension
23h 48m 03s
True Declination
0° 00' 00"
Sunlit
Object was in full shadow at epoch
Visualization orbit readout
Latitude
Unknown
Longitude
Unknown
Altitude
Unknown
Speed
Unknown
Apparent Right ascension
Unknown
Apparent Declination
Unknown
Sunlit
N/A
Visualization observer readout
Local Sidereal Time
06:58:54
Azimuth
Unknown
Elevation
Unknown
Doppler factor
Unknown
Orbital elements
Apogee altitude
1,292.07 km
Perigee altitude
1,245.686 km
Semi-major axis
7,647.015 km
Eccentricity
0.00303
Inclination
90.2407°
RAAN
357.013°
Arg. of periapsis
226.2647°
True anomaly
133.84723°
Mean anomaly
133.5962°
Eccentric anomaly
133.72178°
Mean motion
3.24568 °/min
Orbital period
110.92 mins
BSTAR
0.0018315
Loading maneuver chart data...
Computing Atmospheric mass density...
Loading historical data...
Loading historical data...
Loading historical data...
Loading historical data...
Loading historical data...
Loading historical data...
Loading historical data...

Documentation

Showing up to 5 results
|